Location: Navarre
(52.9016°N, 113.4144°W)
Time: 08:16:00
(UTC+00:00)

Envisat - Pass Details

Date: 03 December 2021
Orbit: 764 x 766 km, 98.2° (Epoch: 17 January)

Event Time Altitude Azimuth Distance (km) Brightness Sun altitude
Rises 12:47:23 0° 15° (NNE) 3,248 6.3 -22.9°
Reaches altitude 10° 12:49:42 10° 16° (NNE) 2,317 5.6 -22.5°
Maximum altitude 12:54:49 84° 105° (ESE) 777 3.0 -21.8°
Drops below altitude 10° 12:59:54 10° 194° (SSW) 2,299 5.4 -21.0°
Sets 13:02:12 0° 195° (SSW) 3,220 6.2 -20.7°
